GW1795 Weather Reports


time (UTC)temp
C
wind
direction
speed
KPH
gust
KPH
rain 1hr
cm
rain 24hr
cm
rain mn
cm
humidity
%
barometer
mb
20260510231222 17 57 6.4 8.0 0.00 0.00 0.00 38 1014.9
20260510230717 17 88 8.0 9.7 0.00 0.00 0.00 38 1014.8
20260510230213 17 37 8.0 9.7 0.00 0.00 0.00 39 1014.7
20260510225710 17 71 3.2 4.8 0.00 0.00 0.00 39 1014.9
20260510225205 17 310 1.6 4.8 0.00 0.00 0.00 39 1015.1
20260510224702 17 352 4.8 9.7 0.00 0.00 0.00 37 1014.9
20260510224158 18 340 0.0 8.0 0.00 0.00 0.00 39 1014.9
20260510223656 17 232 3.2 8.0 0.00 0.00 0.00 38 1014.9
20260510223153 17 74 3.2 11.3 0.00 0.00 0.00 38 1015.1
20260510222650 17 56 3.2 9.7 0.00 0.00 0.00 39 1015.1
20260510222147 17 40 6.4 6.4 0.00 0.00 0.00 41 1014.8
20260510221642 16 78 3.2 6.4 0.00 0.00 0.00 40 1014.9
20260510221139 16 100 4.8 6.4 0.00 0.00 0.00 42 1014.8
20260510220636 16 111 4.8 4.8 0.00 0.00 0.00 41 1014.9
20260510220131 16 45 3.2 8.0 0.00 0.00 0.00 41 1015.1
20260510215628 16 117 0.0 6.4 0.00 0.00 0.00 42 1014.7
20260510215127 16 87 3.2 8.0 0.00 0.00 0.00 42 1015.1
20260510214624 16 98 1.6 4.8 0.00 0.00 0.00 41 1014.7
20260510214120 17 126 3.2 14.5 0.00 0.00 0.00 38 1014.5
20260510213617 18 72 3.2 9.7 0.00 0.00 0.00 40 1014.5
20260510213114 18 14 4.8 11.3 0.00 0.00 0.00 40 1014.3
20260510212610 18 3 1.6 9.7 0.00 0.00 0.00 38 1014.2
20260510212108 18 237 1.6 6.4 0.00 0.00 0.00 40 1014.2
20260510211604 18 111 3.2 8.0 0.00 0.00 0.00 37 1014.1
20260510211104 18 62 4.8 8.0 0.00 0.00 0.00 38 1013.9
20260510210601 19 41 3.2 12.9 0.00 0.00 0.00 35 1014.0
20260510210056 18 98 6.4 8.0 0.00 0.00 0.00 35 1014.1
20260510205555 18 47 4.8 9.7 0.00 0.00 0.00 37 1014.2
20260510205051 18 191 1.6 9.7 0.00 0.00 0.00 36 1014.2
20260510204548 18 247 3.2 12.9 0.00 0.00 0.00 37 1014.0
20260510204044 18 49 3.2 8.0 0.00 0.00 0.00 37 1014.1
20260510203541 18 116 3.2 9.7 0.00 0.00 0.00 39 1014.3
20260510203038 17 103 8.0 9.7 0.00 0.00 0.00 38 1014.2
20260510202537 18 3 1.6 6.4 0.00 0.00 0.00 37 1014.2
20260510202034 18 279 9.7 9.7 0.00 0.00 0.00 38 1014.1
20260510201531 18 206 1.6 8.0 0.00 0.00 0.00 38 1014.2
20260510201028 18 69 8.0 16.1 0.00 0.00 0.00 37 1014.4
20260510200523 17 66 4.8 8.0 0.00 0.00 0.00 38 1014.2
20260510200021 17 121 8.0 9.7 0.00 0.00 0.00 44 1014.3
20260510195519 17 329 3.2 8.0 0.00 0.00 0.00 39 1014.5
20260510195014 17 65 0.0 4.8 0.00 0.00 0.00 41 1014.4
20260510194510 17 164 1.6 6.4 0.00 0.00 0.00 41 1014.4
20260510194006 17 315 6.4 9.7 0.00 0.00 0.00 38 1014.4
20260510193507 17 340 8.0 11.3 0.00 0.00 0.00 38 1014.4
20260510193002 17 330 1.6 9.7 0.00 0.00 0.00 39 1014.4
20260510192457 18 247 6.4 9.7 0.00 0.00 0.00 38 1014.4
20260510191954 18 317 6.4 12.9 0.00 0.00 0.00 37 1014.6
20260510191449 18 315 0.0 8.0 0.00 0.00 0.00 40 1014.5
20260510190947 18 60 6.4 8.0 0.00 0.00 0.00 41 1014.4
20260510190444 17 154 3.2 8.0 0.00 0.00 0.00 44 1014.4
20260510185941 17 60 8.0 11.3 0.00 0.00 0.00 39 1014.3
20260510185438 17 64 4.8 11.3 0.00 0.00 0.00 39 1014.2
20260510184936 17 324 9.7 14.5 0.00 0.00 0.00 38 1014.2
20260510184433 17 51 6.4 16.1 0.00 0.00 0.00 40 1014.4
20260510183932 17 17 4.8 12.9 0.00 0.00 0.00 41 1014.4
20260510183429 17 73 3.2 9.7 0.00 0.00 0.00 43 1014.2
20260510182924 17 287 4.8 9.7 0.00 0.00 0.00 38 1014.3
20260510182421 17 170 1.6 11.3 0.00 0.00 0.00 43 1014.1
20260510181916 17 66 1.6 9.7 0.00 0.00 0.00 42 1014.4
20260510181414 17 5 4.8 16.1 0.00 0.00 0.00 38 1014.3
20260510180910 17 340 9.7 24.1 0.00 0.00 0.00 38 1014.1
20260510180407 17 74 3.2 9.7 0.00 0.00 0.00 43 1014.4
20260510175904 17 86 6.4 14.5 0.00 0.00 0.00 46 1014.0
20260510175400 17 258 4.8 9.7 0.00 0.00 0.00 43 1014.2
20260510174856 17 113 8.0 16.1 0.00 0.00 0.00 40 1014.1
20260510174354 17 32 3.2 11.3 0.00 0.00 0.00 43 1013.9
20260510173850 17 47 1.6 19.3 0.00 0.00 0.00 42 1013.7
20260510173346 17 77 6.4 12.9 0.00 0.00 0.00 47 1013.5
20260510172842 17 358 3.2 9.7 0.00 0.00 0.00 41 1013.9
20260510172338 17 149 4.8 8.0 0.00 0.00 0.00 43 1013.8
20260510171835 17 80 6.4 8.0 0.00 0.00 0.00 45 1013.8
20260510171332 17 40 4.8 17.7 0.00 0.00 0.00 43 1013.8
20260510170829 17 355 4.8 9.7 0.00 0.00 0.00 44 1013.6
20260510170325 17 330 8.0 17.7 0.00 0.00 0.00 41 1013.8
20260510165820 16 116 4.8 6.4 0.00 0.00 0.00 42 1013.8
20260510165317 17 356 4.8 11.3 0.00 0.00 0.00 41 1014.1
20260510164815 17 17 3.2 8.0 0.00 0.00 0.00 45 1014.1
20260510164312 17 62 4.8 9.7 0.00 0.00 0.00 45 1014.1
20260510163812 17 50 8.0 8.0 0.00 0.00 0.00 43 1013.9
20260510163308 17 61 4.8 11.3 0.00 0.00 0.00 43 1014.0
20260510162808 17 85 9.7 9.7 0.00 0.00 0.00 44 1014.0
20260510162306 16 308 3.2 8.0 0.00 0.00 0.00 43 1014.1
20260510161800 17 44 6.4 9.7 0.00 0.00 0.00 43 1014.1
20260510161257 16 155 4.8 4.8 0.00 0.00 0.00 46 1014.0
20260510160754 16 80 3.2 11.3 0.00 0.00 0.00 45 1014.0
20260510160250 16 165 3.2 9.7 0.00 0.00 0.00 57 1013.9
20260510155745 16 4 0.0 14.5 0.00 0.00 0.00 48 1013.9
20260510155242 16 212 3.2 8.0 0.00 0.00 0.00 47 1013.8
20260510154737 16 36 8.0 12.9 0.00 0.00 0.00 47 1013.5
20260510154234 16 120 9.7 9.7 0.00 0.00 0.00 50 1013.7
20260510153729 16 62 6.4 12.9 0.00 0.00 0.00 46 1013.8
20260510153225 16 95 6.4 11.3 0.00 0.00 0.00 46 1013.5
20260510152722 16 74 8.0 12.9 0.00 0.00 0.00 51 1013.5
20260510152217 16 69 3.2 3.2 0.00 0.00 0.00 51 1013.4
20260510151715 16 83 8.0 9.7 0.00 0.00 0.00 53 1013.4
20260510151214 15 64 9.7 16.1 0.00 0.00 0.00 47 1013.5
20260510150708 16 113 8.0 14.5 0.00 0.00 0.00 49 1013.2
20260510150204 16 49 9.7 12.9 0.00 0.00 0.00 50 1013.2
20260510145701 15 50 3.2 9.7 0.00 0.00 0.00 49 1012.9
20260510145157 16 0 4.8 14.5 0.00 0.00 0.00 47 1013.1
20260510144653 15 74 3.2 8.0 0.00 0.00 0.00 47 1012.9
20260510144149 15 130 6.4 6.4 0.00 0.00 0.00 50 1013.0
20260510143645 15 130 4.8 11.3 0.00 0.00 0.00 51 1013.0
20260510143141 15 68 3.2 9.7 0.00 0.00 0.00 52 1012.8
20260510142638 15 104 4.8 14.5 0.00 0.00 0.00 49 1012.7
20260510142135 15 113 11.3 16.1 0.00 0.00 0.00 52 1012.5
20260510141632 15 113 16.1 20.9 0.00 0.00 0.00 48 1012.6
20260510141130 14 89 8.0 14.5 0.00 0.00 0.00 52 1012.6
20260510140626 14 29 9.7 11.3 0.00 0.00 0.00 50 1012.4
20260510140125 13 114 4.8 9.7 0.00 0.00 0.00 54 1012.5
20260510135621 13 36 4.8 8.0 0.00 0.00 0.00 56 1012.4
20260510135117 13 115 14.5 19.3 0.00 0.00 0.00 52 1012.2
20260510134614 13 124 14.5 19.3 0.00 0.00 0.00 52 1012.4
20260510134111 13 126 8.0 9.7 0.00 0.00 0.00 54 1012.4
20260510133607 13 103 8.0 14.5 0.00 0.00 0.00 52 1012.2
20260510133103 13 84 9.7 14.5 0.00 0.00 0.00 53 1012.2
20260510132600 13 43 6.4 14.5 0.00 0.00 0.00 52 1011.9
20260510132057 13 41 9.7 12.9 0.00 0.00 0.00 53 1011.9
20260510131555 13 56 6.4 9.7 0.00 0.00 0.00 55 1012.1
20260510131052 13 70 4.8 8.0 0.00 0.00 0.00 56 1012.0
20260510130548 12 63 9.7 9.7 0.00 0.00 0.00 57 1012.0
20260510130046 12 52 4.8 8.0 0.00 0.00 0.00 58 1011.9
20260510125542 12 101 6.4 9.7 0.00 0.00 0.00 58 1011.9
20260510125038 12 111 4.8 9.7 0.00 0.00 0.00 58 1011.8
20260510124535 12 112 6.4 9.7 0.00 0.00 0.00 61 1011.7
20260510124032 12 36 6.4 9.7 0.00 0.00 0.00 60 1011.7
20260510123527 12 107 4.8 11.3 0.00 0.00 0.00 61 1011.6
20260510123024 12 51 11.3 12.9 0.00 0.00 0.00 62 1011.6
20260510122519 12 94 6.4 8.0 0.00 0.00 0.00 63 1011.2
20260510122015 12 96 8.0 9.7 0.00 0.00 0.00 62 1011.4
20260510121513 11 60 6.4 8.0 0.00 0.00 0.00 63 1011.2
20260510121010 11 116 4.8 6.4 0.00 0.00 0.00 65 1011.1
20260510120508 11 105 4.8 8.0 0.00 0.00 0.00 62 1011.2
20260510120003 11 109 4.8 6.4 0.00 0.00 0.00 63 1011.1
20260510115501 11 87 4.8 8.0 0.00 0.00 0.00 63 1011.3
20260510114956 11 100 3.2 8.0 0.00 0.00 0.00 63 1011.0
20260510114453 11 110 3.2 6.4 0.00 0.00 0.00 63 1011.0
20260510113949 11 110 4.8 6.4 0.00 0.00 0.00 64 1011.0
20260510113444 11 99 3.2 4.8 0.00 0.00 0.00 63 1010.8
20260510112942 11 112 4.8 6.4 0.00 0.00 0.00 62 1010.8
20260510112439 11 100 3.2 6.4 0.00 0.00 0.00 63 1010.6
20260510111935 11 87 4.8 9.7 0.00 0.00 0.00 63 1010.7
20260510111431 11 114 3.2 9.7 0.00 0.00 0.00 62 1010.5
20260510110927 11 91 4.8 9.7 0.00 0.00 0.00 62 1010.6
20260510110424 11 86 1.6 9.7 0.00 0.00 0.00 63 1010.3
20260510105920 11 99 4.8 8.0 0.00 0.00 0.00 63 1010.2
20260510105415 11 80 6.4 11.3 0.00 0.00 0.00 62 1010.1
20260510104910 12 108 3.2 6.4 0.00 0.00 0.00 64 1010.0
20260510104408 12 107 4.8 6.4 0.00 0.00 0.00 65 1010.1
20260510103904 12 109 12.9 12.9 0.00 0.00 0.00 65 1009.8
20260510103401 12 96 1.6 8.0 0.00 0.00 0.00 65 1009.7
20260510102856 12 150 1.6 12.9 0.00 0.00 0.00 66 1009.8
20260510102352 12 324 3.2 4.8 0.00 0.00 0.00 66 1009.8
20260510101850 12 85 4.8 8.0 0.00 0.00 0.00 66 1009.5
20260510101348 12 71 3.2 8.0 0.00 0.00 0.00 66 1009.5
20260510100844 12 40 1.6 4.8 0.00 0.00 0.00 66 1009.8
20260510100341 12 87 3.2 4.8 0.00 0.00 0.00 64 1009.7
20260510095838 12 54 8.0 11.3 0.00 0.00 0.00 64 1009.1
20260510095333 12 75 4.8 6.4 0.00 0.00 0.00 64 1009.0
20260510094832 13 332 3.2 4.8 0.00 0.00 0.00 64 1009.1
20260510094327 13 104 3.2 6.4 0.00 0.00 0.00 64 1009.1
20260510093824 13 39 6.4 9.7 0.00 0.00 0.00 63 1008.8
20260510093320 13 63 4.8 9.7 0.00 0.00 0.00 63 1008.8
20260510092817 13 79 4.8 6.4 0.00 0.00 0.00 63 1008.7
20260510092312 13 103 4.8 8.0 0.00 0.00 0.00 63 1009.0
20260510091808 13 330 9.7 9.7 0.00 0.00 0.00 62 1008.6
20260510091306 13 28 3.2 11.3 0.00 0.00 0.00 64 1008.4
20260510090802 13 76 1.6 11.3 0.00 0.00 0.00 64 1008.2
20260510090259 13 67 3.2 8.0 0.00 0.00 0.00 64 1008.2
20260510085755 13 316 6.4 8.0 0.00 0.00 0.00 65 1008.0
20260510085254 13 102 3.2 9.7 0.00 0.00 0.00 66 1008.0
20260510084751 13 87 3.2 11.3 0.00 0.00 0.00 66 1007.9
20260510084248 13 62 3.2 14.5 0.00 0.00 0.00 66 1007.7
20260510083745 14 53 6.4 8.0 0.00 0.00 0.00 66 1007.4
20260510083242 14 60 9.7 19.3 0.00 0.00 0.00 65 1007.6
20260510082737 14 293 0.0 14.5 0.00 0.00 0.00 65 1007.5
20260510082234 14 77 3.2 9.7 0.00 0.00 0.00 66 1007.5
20260510081733 14 44 6.4 8.0 0.00 0.00 0.00 67 1007.4
20260510081230 15 106 3.2 4.8 0.00 0.00 0.00 68 1007.4
20260510080725 15 145 0.0 6.4 0.00 0.00 0.00 69 1007.4
20260510080221 15 73 0.0 6.4 0.00 0.00 0.00 68 1007.3
20260510075717 15 348 3.2 6.4 0.00 0.00 0.00 69 1007.3
20260510075215 15 93 4.8 6.4 0.00 0.00 0.00 69 1007.0
20260510074712 15 327 3.2 4.8 0.00 0.00 0.00 69 1007.5
20260510074209 15 355 3.2 6.4 0.00 0.00 0.00 69 1007.3
20260510073705 15 359 4.8 6.4 0.00 0.00 0.00 70 1007.0
20260510073201 15 31 3.2 9.7 0.00 0.00 0.00 70 1007.1
20260510072657 15 279 3.2 9.7 0.00 0.00 0.00 69 1007.0
20260510072154 15 359 4.8 4.8 0.00 0.00 0.00 69 1007.0
20260510071650 15 132 1.6 6.4 0.00 0.00 0.00 69 1007.2
20260510071147 15 24 4.8 4.8 0.00 0.00 0.00 68 1006.9
20260510070645 16 9 3.2 8.0 0.00 0.00 0.00 68 1007.0
20260510070142 16 220 4.8 6.4 0.00 0.00 0.00 68 1007.2
20260510065637 16 208 0.0 4.8 0.00 0.00 0.00 67 1007.1
20260510065133 16 357 1.6 4.8 0.00 0.00 0.00 67 1006.9
20260510064630 16 7 3.2 6.4 0.00 0.00 0.00 66 1007.1
20260510064127 16 235 0.0 3.2 0.00 0.00 0.00 66 1007.0
20260510063624 16 352 3.2 9.7 0.00 0.00 0.00 66 1006.8
20260510063121 16 346 3.2 6.4 0.00 0.00 0.00 66 1006.9
20260510062616 16 106 1.6 4.8 0.00 0.00 0.00 66 1007.0
20260510062112 16 177 1.6 6.4 0.00 0.00 0.00 66 1006.8
20260510061608 16 153 3.2 9.7 0.00 0.00 0.00 66 1006.7
20260510061106 16 255 3.2 8.0 0.00 0.00 0.00 66 1007.1
20260510060601 16 250 6.4 12.9 0.00 0.00 0.00 66 1007.0
20260510060058 16 235 6.4 11.3 0.00 0.00 0.00 66 1007.0
20260510055554 16 243 3.2 14.5 0.00 0.00 0.00 67 1007.0
20260510055053 17 200 4.8 14.5 0.00 0.00 0.00 67 1007.0
20260510054549 16 212 6.4 16.1 0.00 0.00 0.00 69 1006.9
20260510054043 16 220 6.4 16.1 0.00 0.00 0.00 70 1006.8
20260510053538 16 224 4.8 22.5 0.00 0.00 0.00 71 1007.0
20260510053035 16 194 8.0 9.7 0.00 0.00 0.00 72 1007.2
20260510052531 16 209 3.2 8.0 0.00 0.00 0.00 72 1007.0
20260510052027 16 191 4.8 8.0 0.00 0.00 0.00 71 1006.8
20260510051523 16 195 4.8 6.4 0.00 0.00 0.00 71 1006.9
20260510051020 16 169 3.2 4.8 0.00 0.00 0.00 70 1006.6
20260510050517 16 157 3.2 6.4 0.00 0.00 0.00 69 1006.5
20260510050014 16 201 3.2 8.0 0.00 0.00 0.00 69 1006.4
20260510045511 16 194 4.8 4.8 0.00 0.00 0.00 68 1006.5
20260510045007 16 285 1.6 6.4 0.00 0.00 0.00 68 1006.5
20260510044504 16 205 4.8 9.7 0.00 0.00 0.00 68 1006.2
20260510044001 16 183 3.2 4.8 0.00 0.00 0.00 68 1006.4
20260510043456 16 180 0.0 6.4 0.00 0.00 0.00 68 1006.6
20260510042955 16 177 3.2 6.4 0.00 0.00 0.00 68 1006.3
20260510042451 16 180 6.4 6.4 0.00 0.00 0.00 68 1006.1
20260510041947 16 151 1.6 3.2 0.00 0.00 0.00 68 1006.0
20260510041444 16 159 3.2 4.8 0.00 0.00 0.00 67 1006.0
20260510040942 16 183 3.2 6.4 0.00 0.00 0.00 67 1006.2
20260510040438 16 179 1.6 4.8 0.00 0.00 0.00 66 1006.1
20260510035934 16 170 3.2 4.8 0.00 0.00 0.00 66 1006.0
20260510035431 17 164 3.2 4.8 0.00 0.00 0.00 65 1005.9
20260510034930 17 204 3.2 4.8 0.00 0.00 0.00 64 1005.9
20260510034430 17 129 3.2 6.4 0.00 0.00 0.00 64 1005.6
20260510033925 17 198 6.4 9.7 0.00 0.00 0.00 63 1005.6
20260510033422 17 171 3.2 6.4 0.00 0.00 0.00 63 1005.6
20260510032918 17 180 4.8 8.0 0.00 0.00 0.00 63 1005.5
20260510032415 17 176 3.2 6.4 0.00 0.00 0.00 64 1005.6
20260510031911 17 186 3.2 6.4 0.00 0.00 0.00 63 1005.6
20260510031407 17 191 3.2 4.8 0.00 0.00 0.00 63 1005.8
20260510030907 17 199 3.2 4.8 0.00 0.00 0.00 63 1005.7
20260510030403 17 181 6.4 9.7 0.00 0.00 0.00 62 1005.5
20260510025901 17 178 4.8 4.8 0.00 0.00 0.00 62 1005.6
20260510025358 17 189 3.2 6.4 0.00 0.00 0.00 62 1005.7
20260510024855 17 195 3.2 6.4 0.00 0.00 0.00 62 1005.9
20260510024352 17 201 3.2 4.8 0.00 0.00 0.00 61 1005.7
20260510023848 17 191 3.2 6.4 0.00 0.00 0.00 61 1005.6
20260510023344 17 183 4.8 8.0 0.00 0.00 0.00 60 1005.5
20260510022842 17 200 3.2 8.0 0.00 0.00 0.00 60 1005.5
20260510022341 17 179 4.8 8.0 0.00 0.00 0.00 60 1005.2
20260510021840 18 217 4.8 6.4 0.00 0.00 0.00 60 1005.3
20260510021338 18 196 8.0 9.7 0.00 0.00 0.00 60 1005.1
20260510020834 18 173 3.2 6.4 0.00 0.00 0.00 60 1005.3
20260510020334 18 143 3.2 4.8 0.00 0.00 0.00 59 1005.1
20260510015830 18 207 4.8 6.4 0.00 0.00 0.00 59 1005.3
20260510015326 18 180 3.2 8.0 0.00 0.00 0.00 58 1005.1
20260510014822 18 197 3.2 8.0 0.00 0.00 0.00 58 1005.1
20260510014319 18 157 3.2 6.4 0.00 0.00 0.00 58 1005.0
20260510013815 18 166 1.6 6.4 0.00 0.00 0.00 57 1004.8
20260510013311 18 194 4.8 6.4 0.00 0.00 0.00 56 1004.6
20260510012807 19 196 3.2 11.3 0.00 0.00 0.00 55 1004.6
20260510012307 19 189 6.4 8.0 0.00 0.00 0.00 55 1004.5
20260510011807 19 205 4.8 9.7 0.00 0.00 0.00 54 1004.3
20260510011302 19 180 4.8 9.7 0.00 0.00 0.00 54 1004.3
20260510010759 19 194 4.8 8.0 0.00 0.00 0.00 54 1004.6
20260510010256 20 238 4.8 8.0 0.00 0.00 0.00 53 1004.5
20260510005753 20 186 8.0 8.0 0.00 0.00 0.00 52 1004.1
20260510005249 20 216 6.4 8.0 0.00 0.00 0.00 52 1004.0
20260510004747 20 188 1.6 8.0 0.00 0.00 0.00 52 1004.2
20260510004244 20 218 8.0 11.3 0.00 0.00 0.00 51 1004.2
20260510003742 20 214 14.5 16.1 0.00 0.00 0.00 51 1004.2
20260510003238 20 230 6.4 11.3 0.00 0.00 0.00 51 1004.2
20260510002736 20 188 4.8 9.7 0.00 0.00 0.00 51 1004.0
20260510002235 20 190 4.8 12.9 0.00 0.00 0.00 50 1003.9
20260510001731 20 222 12.9 17.7 0.00 0.00 0.00 50 1003.8
20260510001230 20 217 6.4 16.1 0.00 0.00 0.00 50 1003.8
20260510000725 21 248 3.2 14.5 0.00 0.00 0.00 50 1003.8
20260510000223 21 213 11.3 11.3 0.00 0.00 0.00 49 1003.9
20260509235720 21 214 12.9 14.5 0.00 0.00 0.00 49 1003.8
20260509235216 21 210 6.4 12.9 0.00 0.00 0.00 48 1003.5
20260509234712 21 222 8.0 14.5 0.00 0.00 0.00 48 1003.6
20260509234209 21 220 12.9 17.7 0.00 0.00 0.00 47 1003.4
20260509233708 21 232 11.3 17.7 0.00 0.00 0.00 47 1003.3
20260509233205 21 225 8.0 14.5 0.00 0.00 0.00 47 1003.5
20260509232701 21 221 9.7 17.7 0.00 0.00 0.00 48 1003.6
20260509232157 21 235 4.8 24.1 0.00 0.00 0.00 48 1003.5
20260509231654 21 233 9.7 20.9 0.00 0.00 0.00 48 1003.5